Location: St. Louis
(38.6270°N, 90.1994°W)
Time: 11:48:35
(UTC-06:00)

Altair - Pass Details

Date: 09 December 2021
Orbit: 1501 x 1683 km, 47.2° (Epoch: 25 January)

Event Time Altitude Azimuth Distance (km) Brightness Sun altitude
Rises 19:19:23 0° 299° (WNW) 4,703 10.8 -30.4°
Reaches altitude 10° 19:22:28 10° 300° (WNW) 3,700 10.1 -31.0°
Maximum altitude 19:31:47 82° 29° (NNE) 1,521 7.2 -32.8°
Enters shadow 19:32:38 75° 86° (E) 1,550 7.2 -33.0°
Drops below altitude 10° 19:40:58 10° 117° (ESE) 3,647 - -34.6°
Sets 19:43:59 0° 118° (ESE) 4,633 - -35.2°
